This is the latest recevied weather packets stored in our database for station/object CT7BNL-13. If no packets are shown the sender has not sent any weather packets the latest 10 day(s).
| Time | Temp. | Humidity | Pressure | Rain* | Wind** | Luminosity | Snow |
|---|---|---|---|---|---|---|---|
| 1788280466 | 26.11° C | 56% | 1025.5 hPa | 0 mm | - | 343 W/m² | - |
| 1788279566 | 27.78° C | 53% | 1025.4 hPa | 0 mm | - | 391 W/m² | - |
| 1788278665 | 27.22° C | 53% | 1025.3 hPa | 0 mm | - | 440 W/m² | - |
| 1788277765 | 28.89° C | 49% | 1025.1 hPa | 0 mm | - | 487 W/m² | - |
| 1788276866 | 28.33° C | 49% | 1025.1 hPa | 0 mm | - | 536 W/m² | - |
| 1788275965 | 28.33° C | 47% | 1025.2 hPa | 0 mm | - | 574 W/m² | - |
| 1788275066 | 28.33° C | 45% | 1025.1 hPa | 0 mm | - | 618 W/m² | - |
| 1788274165 | 29.44° C | 43% | 1025.2 hPa | 0 mm | - | 654 W/m² | - |
| 1788273265 | 28.89° C | 42% | 1025.2 hPa | 0 mm | - | 686 W/m² | - |
| 1788272365 | 27.22° C | 46% | 1025.8 hPa | 0 mm | - | 713 W/m² | - |
| 1788271465 | 28.33° C | 43% | 1025.6 hPa | 0 mm | - | 741 W/m² | - |
| 1788270565 | 27.22° C | 46% | 1025.9 hPa | 0 mm | - | 746 W/m² | - |
| 1788269665 | 26.67° C | 45% | 1025.8 hPa | 0 mm | - | 784 W/m² | - |
| 1788268764 | 26.11° C | 52% | 1026.3 hPa | 0 mm | - | 799 W/m² | - |
| 1788267866 | 25° C | 53% | 1026.3 hPa | 0 mm | - | 809 W/m² | - |
| 1788266966 | 25.56° C | 57% | 1026.5 hPa | 0 mm | - | 816 W/m² | - |
| 1788266066 | 25.56° C | 58% | 1026.3 hPa | 0 mm | - | 822 W/m² | - |
| 1788265165 | 24.44° C | 59% | 1026.5 hPa | 0 mm | - | 820 W/m² | - |
| 1788264265 | 23.33° C | 61% | 1026.6 hPa | 0 mm | - | 813 W/m² | - |
| 1788263365 | 24.44° C | 58% | 1026.6 hPa | 0 mm | - | 808 W/m² | - |
| 1788262465 | 22.22° C | 65% | 1026.8 hPa | 0 mm | - | 791 W/m² | - |
| 1788260665 | 21.67° C | 70% | 1027.3 hPa | 0 mm | - | 763 W/m² | - |
| 1788259766 | 21.11° C | 71% | 1027.3 hPa | 0 mm | - | 737 W/m² | - |
| 1788258865 | 20° C | 75% | 1027.5 hPa | 0 mm | - | 719 W/m² | - |
| 1788257964 | 18.89° C | 80% | 1027.5 hPa | 0 mm | - | 396 W/m² | - |
* Rain latest hour (hover to see other rain measurements)
** Current wind speed in m/s (hover to see current wind gust speed)